• In Uzbekistan
  • List of Countries
  • For 7 days
  • Water Temperature
  • Weather Map
  • Weather Widgets
  • user-avatar
    Login

    Hourly Weather Santa Cruz

    Today, 5 June, Friday

    Time Temperature Precipitation Wind Pressure Humidity
    00:00 +14°C° 0 mm 1 mps 725 mmHg 95%
    01:00 +14°C° 0 mm 1 mps 725 mmHg 95%
    02:00 +13°C° 0 mm 0 mps 725 mmHg 96%
    03:00 +14°C° 0 mm 1 mps 725 mmHg 96%
    04:00 +14°C° 0 mm 1 mps 724 mmHg 96%
    05:00 +14°C° 0 mm 1 mps 724 mmHg 96%
    06:00 +15°C° 0 mm 1 mps 724 mmHg 95%
    07:00 +15°C° 0 mm 1 mps 725 mmHg 94%
    08:00 +15°C° 0 mm 2 mps 725 mmHg 92%
    09:00 +16°C° 0 mm 2 mps 726 mmHg 88%
    10:00 +17°C° 0 mm 2 mps 726 mmHg 84%
    11:00 +18°C° 0 mm 3 mps 726 mmHg 79%
    12:00 +18°C° 0 mm 3 mps 726 mmHg 76%
    13:00 +18°C° 0 mm 3 mps 725 mmHg 73%
    14:00 +18°C° 0 mm 4 mps 725 mmHg 70%
    15:00 +17°C° 0 mm 4 mps 725 mmHg 71%
    16:00 +15°C° 0 mm 4 mps 724 mmHg 72%
    17:00 +14°C° 0 mm 4 mps 724 mmHg 73%
    18:00 +14°C° 0 mm 4 mps 725 mmHg 72%
    19:00 +14°C° 0 mm 4 mps 726 mmHg 72%
    20:00 +14°C° 0 mm 4 mps 727 mmHg 72%
    21:00 +14°C° 0 mm 4 mps 727 mmHg 70%
    22:00 +14°C° 0 mm 4 mps 727 mmHg 68%
    23:00 +14°C° 0 mm 4 mps 727 mmHg 66%

    Tomorrow, 6 June, Saturday

    Time Temperature Precipitation Wind Pressure Humidity
    00:00 +14°C° 0 mm 3 mps 727 mmHg 67%
    01:00 +14°C° 0 mm 3 mps 727 mmHg 69%
    02:00 +15°C° 0 mm 2 mps 726 mmHg 71%
    03:00 +15°C° 0 mm 2 mps 726 mmHg 70%
    04:00 +15°C° 0 mm 2 mps 726 mmHg 69%
    05:00 +15°C° 0 mm 2 mps 726 mmHg 68%
    06:00 +15°C° 0 mm 2 mps 726 mmHg 67%
    07:00 +16°C° 0 mm 2 mps 726 mmHg 65%
    08:00 +16°C° 0 mm 2 mps 727 mmHg 64%
    09:00 +19°C° 0 mm 1 mps 726 mmHg 60%
    10:00 +21°C° 0 mm 1 mps 726 mmHg 55%
    11:00 +23°C° 0 mm 1 mps 726 mmHg 51%
    12:00 +24°C° 0 mm 2 mps 725 mmHg 51%
    13:00 +26°C° 0 mm 2 mps 725 mmHg 51%
    14:00 +28°C° 0 mm 3 mps 724 mmHg 51%
    15:00 +27°C° 0 mm 3 mps 723 mmHg 54%
    16:00 +27°C° 0 mm 4 mps 723 mmHg 58%
    17:00 +27°C° 0 mm 4 mps 722 mmHg 61%
    18:00 +25°C° 0 mm 3 mps 722 mmHg 67%
    19:00 +24°C° 0 mm 3 mps 723 mmHg 73%
    20:00 +21°C° 0 mm 3 mps 723 mmHg 79%
    21:00 +21°C° 0 mm 3 mps 723 mmHg 80%
    22:00 +21°C° 0 mm 3 mps 723 mmHg 81%
    23:00 +21°C° 0 mm 3 mps 724 mmHg 83%

    Day after tomorrow, 7 June, Sunday

    Time Temperature Precipitation Wind Pressure Humidity
    00:00 +21°C° 0 mm 3 mps 723 mmHg 81%
    01:00 +21°C° 0 mm 3 mps 723 mmHg 80%
    02:00 +22°C° 0 mm 4 mps 723 mmHg 78%
    03:00 +22°C° 0 mm 4 mps 723 mmHg 78%
    04:00 +22°C° 0 mm 4 mps 723 mmHg 78%
    05:00 +22°C° 0 mm 5 mps 723 mmHg 78%
    06:00 +23°C° 0 mm 5 mps 723 mmHg 76%
    07:00 +23°C° 0 mm 6 mps 723 mmHg 75%
    08:00 +24°C° 0 mm 6 mps 724 mmHg 73%
    09:00 +27°C° 0 mm 7 mps 724 mmHg 66%
    10:00 +29°C° 0 mm 7 mps 724 mmHg 58%
    11:00 +32°C° 0 mm 8 mps 724 mmHg 51%
    12:00 +32°C° 0 mm 8 mps 723 mmHg 49%
    13:00 +33°C° 0 mm 8 mps 722 mmHg 48%
    14:00 +34°C° 0 mm 8 mps 721 mmHg 47%
    15:00 +33°C° 0 mm 7 mps 721 mmHg 49%
    16:00 +32°C° 0 mm 7 mps 721 mmHg 52%
    17:00 +30°C° 0 mm 6 mps 720 mmHg 55%
    18:00 +30°C° 0 mm 6 mps 721 mmHg 59%
    19:00 +29°C° 0 mm 6 mps 721 mmHg 62%
    20:00 +28°C° 0 mm 5 mps 722 mmHg 66%
    21:00 +28°C° 0 mm 5 mps 722 mmHg 68%
    22:00 +27°C° 0 mm 5 mps 723 mmHg 71%
    23:00 +27°C° 0 mm 4 mps 723 mmHg 73%

    8 June, Monday

    Time Temperature Precipitation Wind Pressure Humidity
    00:00 +27°C° 0 mm 5 mps 723 mmHg 76%
    01:00 +26°C° 0 mm 5 mps 723 mmHg 78%
    02:00 +26°C° 0 mm 5 mps 722 mmHg 81%
    03:00 +26°C° 0 mm 5 mps 722 mmHg 82%
    04:00 +26°C° 0 mm 5 mps 722 mmHg 83%
    05:00 +25°C° 0 mm 5 mps 722 mmHg 84%
    06:00 +26°C° 0 mm 6 mps 723 mmHg 82%
    07:00 +26°C° 0 mm 6 mps 723 mmHg 79%
    08:00 +27°C° 0 mm 6 mps 724 mmHg 77%
    09:00 +28°C° 0 mm 7 mps 724 mmHg 71%
    10:00 +30°C° 0 mm 7 mps 724 mmHg 64%
    11:00 +32°C° 0 mm 7 mps 724 mmHg 57%
    12:00 +33°C° 0 mm 7 mps 723 mmHg 54%
    13:00 +34°C° 0 mm 7 mps 722 mmHg 51%
    14:00 +34°C° 0 mm 7 mps 722 mmHg 48%
    15:00 +34°C° 0 mm 6 mps 721 mmHg 50%
    16:00 +33°C° 0 mm 6 mps 721 mmHg 53%
    17:00 +32°C° 0 mm 5 mps 721 mmHg 55%
    18:00 +30°C° 0 mm 5 mps 721 mmHg 60%
    19:00 +29°C° 0 mm 4 mps 722 mmHg 64%
    20:00 +28°C° 0 mm 3 mps 722 mmHg 69%
    21:00 +27°C° 0 mm 3 mps 722 mmHg 72%
    22:00 +27°C° 0 mm 3 mps 722 mmHg 75%
    23:00 +26°C° 0 mm 3 mps 722 mmHg 77%

    9 June, Tuesday

    Time Temperature Precipitation Wind Pressure Humidity
    00:00 +26°C° 0 mm 3 mps 722 mmHg 79%
    01:00 +26°C° 0 mm 4 mps 722 mmHg 81%
    02:00 +26°C° 0 mm 4 mps 722 mmHg 82%
    03:00 +25°C° 0 mm 4 mps 722 mmHg 84%
    04:00 +25°C° 0 mm 4 mps 722 mmHg 85%
    05:00 +25°C° 0 mm 4 mps 722 mmHg 86%
    06:00 +25°C° 0 mm 4 mps 722 mmHg 84%
    07:00 +26°C° 0 mm 5 mps 723 mmHg 82%
    08:00 +26°C° 0 mm 5 mps 723 mmHg 80%
    09:00 +28°C° 0 mm 5 mps 723 mmHg 72%
    10:00 +30°C° 0 mm 6 mps 723 mmHg 64%
    11:00 +32°C° 0 mm 6 mps 723 mmHg 57%
    12:00 +33°C° 0 mm 6 mps 723 mmHg 53%
    13:00 +34°C° 0 mm 6 mps 722 mmHg 50%
    14:00 +35°C° 0 mm 6 mps 721 mmHg 46%
    15:00 +34°C° 0 mm 6 mps 721 mmHg 49%
    16:00 +33°C° 0 mm 6 mps 720 mmHg 53%
    17:00 +32°C° 0 mm 5 mps 720 mmHg 56%
    18:00 +30°C° 0 mm 5 mps 720 mmHg 62%
    19:00 +28°C° 0 mm 4 mps 720 mmHg 68%
    20:00 +27°C° 0 mm 4 mps 721 mmHg 74%
    21:00 +27°C° 0 mm 4 mps 721 mmHg 75%
    22:00 +27°C° 0 mm 4 mps 721 mmHg 76%
    23:00 +27°C° 0 mm 4 mps 721 mmHg 76%

    10 June, Wednesday

    Time Temperature Precipitation Wind Pressure Humidity
    00:00 +26°C° 0 mm 5 mps 721 mmHg 76%
    01:00 +26°C° 0 mm 5 mps 721 mmHg 76%
    02:00 +26°C° 0 mm 5 mps 720 mmHg 76%
    03:00 +26°C° 0 mm 5 mps 720 mmHg 77%
    04:00 +26°C° 0 mm 5 mps 720 mmHg 79%
    05:00 +25°C° 0 mm 5 mps 721 mmHg 81%
    06:00 +26°C° 0 mm 5 mps 721 mmHg 79%
    07:00 +26°C° 0 mm 6 mps 721 mmHg 78%
    08:00 +26°C° 0 mm 6 mps 722 mmHg 77%
    09:00 +28°C° 0 mm 6 mps 722 mmHg 69%
    10:00 +30°C° 0 mm 7 mps 722 mmHg 62%
    11:00 +32°C° 0 mm 7 mps 722 mmHg 54%
    12:00 +33°C° 0 mm 7 mps 721 mmHg 52%
    13:00 +34°C° 0 mm 7 mps 720 mmHg 49%
    14:00 +34°C° 0 mm 7 mps 720 mmHg 46%
    15:00 +34°C° 0 mm 7 mps 719 mmHg 49%
    16:00 +33°C° 0 mm 7 mps 719 mmHg 51%
    17:00 +32°C° 0 mm 6 mps 719 mmHg 54%
    18:00 +30°C° 0 mm 6 mps 719 mmHg 58%
    19:00 +29°C° 0 mm 6 mps 719 mmHg 61%
    20:00 +28°C° 0 mm 5 mps 720 mmHg 65%
    21:00 +28°C° 0 mm 5 mps 720 mmHg 66%
    22:00 +28°C° 0 mm 6 mps 720 mmHg 67%
    23:00 +27°C° 0 mm 6 mps 720 mmHg 68%
    Show more